Kirkville, IA

5:13 PM CDT on August 30, 2016 (GMT -0500)
Ottumwa Industrial

Weather History for KOTM - August, 2012

Change the Weather History Date:

Sunday, August 26, 2012

  Actual Average Record
Temperature  
Mean Temperature 73 °F 72 °F  
Max Temperature 80 °F 83 °F 102 °F (1983)
Min Temperature 66 °F 61 °F 46 °F (1934)
Degree Days  
Heating Degree Days 0 0  
Month to date heating degree days 5 0  
Since 1 June heating degree days 18 23  
Since 1 July heating degree days 5 2  
Cooling Degree Days 8 7  
Month to date cooling degree days 178 222  
Year to date cooling degree days 1078 801  
Since 1 June cooling degree days 924 737  
Growing Degree Days 24 (Base 50)    
Moisture  
Dew Point 70 °F    
Average Humidity 86    
Maximum Humidity 100    
Minimum Humidity 71    
Precipitation  
Precipitation 0.69 in 0.15 in 2.83 in (1944)
Month to date precipitation 2.99 3.89  
Year to date precipitation 18.48 25.98  
Sea Level Pressure  
Sea Level Pressure 29.95 in    
Wind  
Wind Speed 6 mph (East)    
Max Wind Speed 14 mph    
Max Gust Speed 18 mph    
Visibility 7 miles    
Events Rain    
T = Trace of Precipitation, MM = Missing Value Source: NWS Daily Summary

Daily Weather History Graph

Daily Weather History Graph

Search for Another Location

Airport or City:

Trip Planner

Search our weather history database for the weather conditions in past years. The results will help you decide how hot, cold, wet, or windy it might be!

Date:

Astronomy

Aug. 26, 2012 Rise Set
Actual Time 6:30 AM CDT 7:51 PM CDT
Civil Twilight 6:02 AM CDT 8:19 PM CDT
Nautical Twilight 5:27 AM CDT 8:54 PM CDT
Astronomical Twilight 4:51 AM CDT 9:30 PM CDT
Moon 4:23 PM CDT (8/26) 1:10 AM CDT (8/26)
Length of Visible Light 14h 17m
Length of Day
13h 20m
Waxing Gibbous, 73% of the Moon is Illuminated
Aug 26
Waxing Gibbous
Aug 31
Full
Sep 8
Last Quarter
Sep 15
New
Sep 22
First Quarter

Hourly Weather History & Observations

Time (CDT) Temp. Dew Point Humidity Pressure Visibility Wind Dir Wind Speed Gust Speed Precip Events Conditions
12:53 AM 70.0 °F 68.0 °F 93% 29.91 in 6.0 mi SSE 5.8 mph - N/A   Partly Cloudy
1:53 AM 69.1 °F 68.0 °F 96% 29.91 in 5.0 mi SE 4.6 mph - N/A   Clear
2:53 AM 70.0 °F 68.0 °F 93% 29.90 in 4.0 mi SSE 3.5 mph - N/A   Scattered Clouds
3:05 AM 69.8 °F 69.8 °F 100% 29.93 in 5.0 mi SSE 4.6 mph - N/A   Scattered Clouds
3:53 AM 71.1 °F 69.1 °F 93% 29.91 in 7.0 mi SSE 6.9 mph - N/A   Mostly Cloudy
4:03 AM 71.6 °F 69.8 °F 94% 29.93 in 7.0 mi SSE 5.8 mph - N/A   Mostly Cloudy
4:53 AM 71.1 °F 70.0 °F 96% 29.93 in 5.0 mi SSE 5.8 mph - 0.02 in Rain Light Rain
5:01 AM 71.6 °F 69.8 °F 94% 29.94 in 5.0 mi SSE 4.6 mph - 0.01 in Rain Light Rain
5:17 AM 71.6 °F 69.8 °F 94% 29.95 in 2.5 mi SSE 5.8 mph - 0.11 in Rain Heavy Rain
5:26 AM 71.6 °F 69.8 °F 94% 29.95 in 1.8 mi SSE 5.8 mph - 0.23 in Rain Heavy Rain
5:31 AM 71.6 °F 69.8 °F 94% 29.95 in 3.0 mi SE 3.5 mph - 0.25 in Rain Rain
5:38 AM 71.6 °F 69.8 °F 94% 29.95 in 1.8 mi SE 4.6 mph - 0.34 in Rain Heavy Rain
5:45 AM 71.6 °F 69.8 °F 94% 29.95 in 3.0 mi SE 5.8 mph - 0.35 in Rain Light Rain
5:53 AM 71.1 °F 70.0 °F 96% 29.94 in 5.0 mi SE 3.5 mph - 0.35 in Rain Light Rain
6:28 AM 71.6 °F 69.8 °F 94% 29.95 in 5.0 mi ESE 5.8 mph - 0.06 in Rain Light Rain
6:47 AM 69.8 °F 69.8 °F 100% 29.95 in 6.0 mi ESE 4.6 mph - 0.08 in Rain Light Rain
6:48 AM 70.0 °F 69.1 °F 97% 29.94 in 6.0 mi ESE 4.6 mph - 0.08 in Rain Light Rain
7:24 AM 69.8 °F 69.8 °F 100% 29.95 in 5.0 mi East 4.6 mph - 0.01 in Rain Light Rain
7:53 AM 70.0 °F 69.1 °F 97% 29.95 in 4.0 mi ESE 8.1 mph - 0.03 in Rain Light Rain
7:59 AM 69.8 °F 69.8 °F 100% 29.96 in 1.8 mi ESE 8.1 mph - 0.04 in Rain Heavy Rain
8:08 AM 69.8 °F 69.8 °F 100% 29.96 in 3.0 mi ESE 8.1 mph - 0.05 in Rain Light Rain
8:45 AM 71.6 °F 69.8 °F 94% 29.96 in 4.0 mi ESE 9.2 mph - 0.12 in Rain Rain
8:53 AM 71.1 °F 69.1 °F 93% 29.95 in 5.0 mi ESE 6.9 mph - 0.13 in Rain Light Rain
9:01 AM 71.6 °F 69.8 °F 94% 29.96 in 5.0 mi ESE 9.2 mph - 0.00 in Rain Light Rain
9:53 AM 71.1 °F 70.0 °F 96% 29.95 in 6.0 mi ESE 6.9 mph - 0.05 in Rain Light Rain
10:53 AM 72.0 °F 71.1 °F 97% 29.95 in 8.0 mi SSE 4.6 mph - 0.01 in Rain Light Rain
11:53 AM 73.9 °F 71.1 °F 91% 29.95 in 7.0 mi Calm Calm - 0.02 in Rain Light Rain
12:06 PM 73.4 °F 71.6 °F 94% 29.97 in 8.0 mi Calm Calm - 0.00 in Rain Light Rain
12:19 PM 73.4 °F 71.6 °F 94% 29.96 in 9.0 mi Calm Calm - 0.00 in Rain Light Rain
12:28 PM 73.4 °F 71.6 °F 94% 29.96 in 10.0 mi Calm Calm - 0.00 in Rain Light Rain
12:40 PM 73.4 °F 71.6 °F 94% 29.96 in 10.0 mi Variable 3.5 mph - 0.00 in Rain Light Rain
12:53 PM 73.9 °F 70.0 °F 87% 29.94 in 10.0 mi NW 3.5 mph - 0.00 in Rain Light Rain
1:04 PM 75.2 °F 71.6 °F 89% 29.96 in 10.0 mi WNW 3.5 mph - 0.00 in Rain Light Rain
1:24 PM 75.2 °F 71.6 °F 89% 29.96 in 10.0 mi NNW 5.8 mph - 0.00 in   Overcast
1:40 PM 73.4 °F 69.8 °F 88% 29.97 in 10.0 mi North 6.9 mph - 0.00 in Rain Light Rain
1:53 PM 73.9 °F 71.1 °F 91% 29.95 in 10.0 mi North 6.9 mph - 0.00 in Rain Light Rain
2:29 PM 78.8 °F 71.6 °F 78% 29.96 in 10.0 mi North 5.8 mph - 0.00 in   Mostly Cloudy
2:53 PM 77.0 °F 71.1 °F 82% 29.94 in 10.0 mi NNE 10.4 mph - 0.00 in   Overcast
3:01 PM 75.2 °F 69.8 °F 83% 29.96 in 10.0 mi NE 8.1 mph - N/A   Overcast
3:53 PM 77.0 °F 69.1 °F 76% 29.95 in 10.0 mi ENE 11.5 mph - N/A   Mostly Cloudy
4:03 PM 78.8 °F 69.8 °F 74% 29.97 in 10.0 mi ENE 12.7 mph - N/A   Mostly Cloudy
4:17 PM 78.8 °F 69.8 °F 74% 29.96 in 10.0 mi NE 10.4 mph - N/A   Scattered Clouds
4:53 PM 79.0 °F 69.1 °F 72% 29.95 in 10.0 mi NE 11.5 mph - N/A   Clear
5:53 PM 78.1 °F 68.0 °F 71% 29.96 in 10.0 mi NE 11.5 mph - N/A   Clear
6:53 PM 75.9 °F 68.0 °F 76% 29.96 in 10.0 mi ENE 8.1 mph - N/A   Clear
7:53 PM 73.0 °F 68.0 °F 84% 29.98 in 10.0 mi NNE 4.6 mph - N/A   Clear
8:53 PM 71.1 °F 66.9 °F 87% 30.00 in 10.0 mi NNE 5.8 mph - N/A   Clear
9:53 PM 70.0 °F 66.0 °F 87% 30.01 in 10.0 mi NNE 4.6 mph - N/A   Clear
10:53 PM 68.0 °F 64.9 °F 90% 30.02 in 10.0 mi NNE 4.6 mph - N/A   Clear
11:53 PM 66.9 °F 64.0 °F 90% 30.03 in 10.0 mi NE 4.6 mph - N/A   Clear